Wind_Speed
20 25 30 34 33 32 29 28 27 28 30 32 29 23 20 27 27 26 32 24 19 34 40 39 38 41 44 43 41 39 38 30 26 24 18 17 17 18 18 17 16 15 14
19 19 24 30 34 34 32 30 28 27 31 34 34 29 24 27 29 27 28 29 34 32 24 38 39 41 42 41 43 40 33 30 31 18 16 2 6 17 19 19 19 18 16
21 20 17 22 30 33 35 31 30 28 31 37 36 29 22 18 22 27 30 34 35 33 24 32 39 41 40 43 46 44 36 28 35 25 11 3 4 5 14 21 19 18 17
18 18 18 20 24 32 37 32 29 30 33 37 33 27 24 22 23 24 29 36 36 41 37 36 40 40 39 40 45 46 40 33 29 27 24 10 8 3 2 10 19 17 16
12 13 13 19 27 31 31 32 31 32 34 36 37 31 27 26 26 27 29 31 39 41 40 33 43 42 39 40 43 43 38 39 32 30 29 16 10 7 3 3 6 14 14
13 15 19 23 27 31 33 32 28 30 32 35 35 33 28 27 27 28 31 35 31 36 40 47 41 42 40 43 47 45 43 39 37 38 34 27 10 11 5 2 3 8 11
13 14 13 13 18 24 27 27 26 26 31 33 33 33 33 31 30 29 30 33 35 35 43 52 50 46 44 42 44 45 43 43 41 43 39 35 28 13 14 6 4 3 4
10 10 9 8 13 19 23 22 22 24 27 30 30 32 32 31 31 32 31 33 37 33 39 49 50 46 44 42 44 43 44 45 44 41 40 37 31 24 23 12 10 2 3
8 6 5 6 12 16 21 24 23 22 22 24 28 31 29 30 27 31 40 37 39 37 23 39 38 40 42 44 45 40 42 45 45 43 41 41 34 29 22 19 16 10 5
7 3 3 5 7 11 15 19 17 12 10 16 21 27 25 32 34 32 34 36 34 38 42 34 36 39 41 44 44 40 44 43 43 42 41 40 35 31 27 23 19 16 11
6 5 2 3 11 12 10 12 14 17 18 16 21 24 30 33 31 8 18 25 32 35 38 38 36 37 40 41 42 37 41 40 40 41 39 39 37 34 31 26 22 20 15
6 5 5 5 7 10 12 16 21 23 19 18 25 20 27 26 24 23 14 13 27 31 34 36 37 34 35 36 38 35 38 38 40 42 40 39 36 32 31 27 26 23 20
7 3 2 3 3 7 10 13 15 21 17 21 21 21 23 21 25 29 28 21 22 31 33 37 35 34 34 35 34 39 38 41 41 40 40 38 35 32 29 29 27 24 21
20 15 11 2 4 8 19 23 16 17 16 14 14 6 3 8 18 31 29 27 27 29 31 33 35 37 36 36 37 37 37 39 40 38 38 39 37 37 34 31 30 26 21
23 21 20 19 18 25 28 27 24 27 22 21 17 13 13 22 16 20 24 27 31 30 33 32 30 32 32 34 37 36 36 34 33 34 36 38 39 39 39 37 35 29 25
24 22 22 21 20 26 26 30 30 30 32 28 24 23 21 28 27 21 22 26 27 28 28 28 29 31 34 35 34 34 34 36 36 34 36 37 39 37 37 34 35 32 34
18 19 20 19 25 27 29 28 30 32 32 30 30 30 31 30 29 28 27 19 20 21 19 21 23 25 28 30 31 33 36 37 36 36 36 38 39 36 33 33 34 31 34
16 17 15 23 26 27 27 30 31 30 31 30 31 33 30 34 33 30 28 25 23 20 10 12 16 21 25 26 27 30 34 34 36 36 38 38 40 38 37 34 31 27 22
11 16 19 20 23 26 25 28 30 29 30 28 32 35 33 33 32 31 29 26 24 21 15 9 4 1 11 20 21 27 30 32 37 35 39 41 38 39 36 37 34 28 26
14 17 20 22 25 24 23 29 27 27 28 27 32 32 31 30 28 25 25 22 20 18 15 12 10 10 8 6 6 11 20 21 20 23 24 25 29 31 36 37 34 33 33
15 17 19 21 23 25 29 30 30 29 25 26 30 33 32 30 28 26 26 23 20 16 14 12 11 12 13 12 13 12 12 13 17 23 26 28 28 35 37 36 38 38 36
13 16 17 20 25 28 28 25 26 24 26 29 31 32 33 32 30 28 26 26 25 23 20 17 16 15 14 15 17 19 16 16 17 20 24 28 30 31 33 37 35 26 31
14 17 18 18 25 26 27 23 24 25 25 27 29 31 27 27 27 27 26 26 25 24 23 23 21 21 20 19 19 21 22 21 21 21 23 27 29 32 33 31 26 32 29
12 15 18 18 20 25 27 27 26 23 23 25 25 23 25 25 25 23 23 21 18 17 17 17 18 19 21 22 23 22 22 23 25 25 24 22 23 26 28 30 32 34 35
10 14 15 16 17 19 22 22 22 21 22 17 18 18 22 21 20 21 21 18 17 20 18 15 16 16 16 18 18 18 20 22 24 25 22 18 17 23 25 26 25 30 30
7 10 12 13 13 17 19 20 20 20 21 16 17 19 15 16 18 19 19 19 18 19 18 17 17 18 17 20 22 23 22 21 20 20 22 21 22 23 26 32 33 33 32
Wind_Direction
250 246 244 253 256 256 254 258 255 252 242 227 222 231 226 237 239 234 234 218 195 172 189 190 194 199 196 198 195 193 194 200 196 184 189 200 213 219 223 227 230 234 238
252 246 237 236 246 251 250 255 253 249 239 224 221 223 234 238 239 231 229 219 184 174 190 196 195 194 192 197 196 193 190 199 195 181 157 143 225 229 227 229 233 237 246
255 251 242 230 233 235 242 245 247 244 235 225 221 222 228 230 223 225 226 226 222 205 224 205 199 195 192 195 196 196 192 188 196 194 167 133 214 178 221 226 228 233 241
265 251 242 236 230 233 240 242 247 241 236 229 215 209 210 215 219 217 222 233 231 227 221 224 202 196 193 193 196 196 196 190 189 190 193 191 158 175 221 219 222 227 230
260 252 239 239 240 235 233 235 240 237 230 221 219 215 215 220 223 220 215 221 228 228 214 214 194 196 194 195 194 194 193 194 190 192 192 196 196 194 144 186 190 215 221
255 249 250 253 238 228 230 231 230 226 221 217 217 219 216 220 224 219 213 218 222 222 207 213 205 199 196 195 196 196 194 195 197 197 200 203 180 194 174 136 157 186 199
272 261 252 239 207 202 209 218 215 211 214 214 222 222 224 224 223 221 219 223 223 231 206 201 197 197 196 195 194 196 197 200 201 203 205 212 217 220 208 163 135 146 180
287 258 220 175 180 196 207 209 202 207 213 218 223 225 228 221 224 231 235 225 215 218 206 198 194 188 190 191 193 194 198 204 206 210 209 215 220 222 220 199 158 112 177
293 267 251 192 183 194 199 202 201 205 209 223 222 226 229 223 223 227 239 235 206 203 180 175 176 183 187 192 192 192 197 205 209 214 218 221 225 224 226 223 208 170 180
307 351 156 161 173 178 190 187 182 188 226 248 246 239 226 229 234 239 221 211 197 186 193 186 182 181 188 194 193 193 199 203 208 214 219 223 226 225 228 228 223 222 192
289 292 49 109 149 151 185 215 236 258 260 243 261 233 209 217 239 268 186 172 168 182 183 178 180 181 187 191 191 194 198 201 207 214 219 224 230 232 227 221 220 221 201
236 213 187 184 214 193 211 244 253 251 230 221 226 215 214 227 241 250 223 209 182 180 173 177 180 181 187 188 188 193 199 199 207 216 221 227 228 226 219 219 221 219 212
32 142 166 212 180 206 228 250 253 265 223 195 201 203 210 236 240 222 212 209 198 191 185 182 182 186 191 194 193 200 204 206 215 218 222 224 224 217 217 220 220 215 213
43 36 30 144 173 235 240 240 211 139 151 152 155 132 31 354 223 199 194 201 202 183 181 185 188 196 202 206 205 204 205 207 214 218 223 226 226 223 223 219 218 216 214
32 33 34 41 38 45 48 58 73 86 82 76 73 77 69 53 103 169 176 182 182 184 188 186 192 197 201 201 199 203 210 214 219 225 227 231 233 232 230 222 218 215 212
23 29 38 38 36 37 42 47 52 52 57 50 40 44 53 69 68 81 138 158 169 181 184 185 193 196 201 206 210 214 219 219 219 221 231 235 233 231 229 229 227 229 214
22 27 31 30 37 35 39 43 50 52 52 49 44 43 54 54 57 68 72 94 141 171 183 193 203 210 215 218 223 225 225 225 226 227 227 228 231 225 220 223 228 221 218
25 29 31 32 32 41 46 52 51 50 48 43 44 43 45 56 57 57 58 63 67 88 122 174 202 219 226 223 228 229 229 234 232 228 230 227 228 224 221 219 214 207 206
26 32 35 38 41 43 45 52 49 48 47 41 46 47 47 48 50 49 48 46 47 50 46 53 58 192 199 219 235 236 221 224 223 226 229 228 229 222 223 211 193 190 190
35 31 32 38 41 37 48 54 47 46 43 39 48 52 50 49 50 53 50 49 48 45 41 37 22 5 346 325 295 256 239 233 220 219 228 235 224 224 212 202 189 188 195
29 37 45 47 38 43 50 47 42 36 42 49 52 52 50 47 41 39 40 41 42 39 34 20 7 355 345 333 324 303 283 268 253 242 231 233 231 219 208 205 203 203 197
38 47 50 43 43 49 51 48 44 41 45 46 47 47 45 43 41 41 36 32 27 25 23 17 4 355 342 326 317 309 294 272 271 253 239 229 223 220 209 205 206 198 196
46 52 56 53 49 48 49 48 35 34 34 38 38 38 36 35 33 34 31 32 30 27 16 8 2 356 352 342 328 314 304 295 282 274 260 248 237 225 212 204 203 206 202
51 53 54 51 44 40 39 36 30 27 32 34 32 30 30 24 24 27 29 29 29 20 13 3 354 348 345 342 343 336 323 301 287 284 274 262 246 225 210 204 210 213 203
53 50 52 54 50 43 41 36 32 30 29 27 25 28 28 22 21 29 28 20 13 9 358 346 338 342 340 340 336 329 322 310 300 281 267 251 226 202 199 200 197 207 204
59 58 57 58 46 42 40 39 35 34 36 37 31 28 20 11 11 9 1 3 359 359 2 357 354 341 334 331 322 315 308 304 312 268 242 230 218 209 204 199 207 213 212
Height
726 728 728 730 732 734 737 737 739 741 745 749 753 757 759 762 764 767 768 770 768 762 773 786 792 795 802 807 812 817 823 829 834 839 842 845 846 847 847 849 850 850 851
721 718 719 720 722 724 728 730 732 735 738 741 745 750 752 754 757 761 763 765 762 768 776 780 785 791 795 802 808 812 818 825 830 833 839 845 846 844 844 845 846 847 848
712 710 711 710 712 713 717 721 724 727 731 735 740 745 749 751 752 755 758 759 762 763 767 773 780 785 789 794 801 807 812 818 824 827 831 842 842 840 840 840 842 844 845
702 701 701 701 702 703 707 712 716 720 723 729 733 737 740 742 745 749 752 755 757 759 760 771 774 780 784 788 795 801 808 813 818 824 827 828 830 835 839 837 838 840 842
699 694 693 693 694 696 699 702 706 711 715 721 725 730 734 736 740 744 746 747 748 753 755 762 765 774 778 783 788 795 802 808 812 817 821 824 827 828 830 834 835 837 838
689 684 681 683 684 687 691 694 699 703 709 714 719 723 727 730 733 735 737 739 743 742 743 754 760 767 773 776 783 789 795 801 807 811 815 818 822 823 825 828 831 833 836
679 676 674 673 674 678 683 688 693 699 705 708 713 716 720 723 723 725 729 731 732 735 735 742 749 757 765 771 776 784 790 795 801 806 810 815 818 820 822 823 828 831 834
675 669 668 665 670 674 679 684 689 695 699 703 707 710 713 715 716 717 720 721 724 723 726 733 740 745 757 764 770 778 784 791 797 802 807 811 815 818 820 820 822 830 832
670 667 666 665 667 672 676 680 685 690 694 699 702 704 708 710 709 712 711 713 712 716 718 722 729 740 749 757 765 772 779 786 792 798 803 806 810 814 817 818 819 820 829
667 664 665 665 667 672 676 682 686 690 693 695 697 702 704 702 702 700 701 702 701 702 717 724 730 736 744 753 760 768 774 780 787 793 798 801 805 810 813 815 817 818 818
670 666 667 666 668 672 676 678 683 687 689 691 691 697 696 695 695 690 694 697 692 702 711 721 729 734 740 749 756 763 768 775 781 788 792 796 800 804 808 810 813 814 815
665 666 666 665 664 668 672 674 676 683 683 686 689 690 688 693 691 690 691 697 699 700 706 716 725 731 739 746 750 758 763 770 775 781 785 789 794 798 801 804 807 809 811
661 663 665 665 664 667 668 668 670 669 670 675 681 685 688 687 686 689 691 695 697 702 709 715 722 728 736 741 749 753 759 764 770 774 779 782 787 792 795 798 802 805 807
675 672 665 659 666 668 667 668 669 670 674 675 675 678 679 677 670 677 682 691 699 704 708 714 719 725 732 738 745 750 756 759 763 767 772 777 781 785 789 791 796 799 802
682 680 674 673 670 667 666 667 671 674 676 678 680 681 679 672 668 676 683 690 697 705 708 714 720 724 728 734 741 746 749 754 759 763 767 770 774 778 781 783 788 792 795
699 694 691 688 685 684 683 682 682 684 684 687 687 685 683 680 678 678 684 689 697 704 708 714 719 724 728 732 737 740 744 750 754 756 761 764 768 772 775 778 782 785 787
720 714 709 706 705 703 699 698 696 695 695 694 693 693 691 690 690 691 690 691 696 702 708 715 720 724 726 730 733 739 742 745 748 751 755 758 761 765 766 773 777 777 781
734 729 725 721 718 717 715 712 710 708 705 706 704 702 703 701 702 702 703 705 705 707 714 717 720 724 726 730 733 736 738 740 744 746 749 751 754 757 760 764 768 770 776
746 742 739 737 732 728 727 724 721 720 719 718 713 713 714 713 714 715 715 714 715 716 719 723 725 726 725 729 731 735 735 736 736 738 742 743 744 747 750 756 759 765 768
754 750 745 743 741 741 737 731 731 730 727 728 727 727 728 728 728 727 725 725 725 726 728 730 732 731 732 731 732 734 734 734 730 734 736 736 737 740 745 747 750 759 763
758 755 752 749 746 742 738 735 736 738 742 741 739 736 734 733 733 732 730 730 733 735 733 733 734 734 733 733 734 735 735 735 733 731 731 733 733 733 737 742 748 749 756
763 760 757 754 752 749 745 747 747 752 748 744 743 740 739 738 740 739 739 739 738 738 739 739 739 738 735 735 735 736 736 735 734 731 730 729 731 734 736 739 743 750 754
766 763 761 760 758 757 756 755 756 752 748 746 744 739 743 745 745 742 742 742 743 744 745 744 741 739 738 737 736 737 736 735 734 733 729 729 728 731 733 739 741 746 753
769 768 765 763 762 760 757 755 753 755 753 747 747 751 750 750 750 750 749 748 748 746 745 744 743 741 739 737 735 733 735 736 734 732 729 727 726 727 729 732 738 743 742
770 769 768 768 768 766 765 765 763 759 756 760 759 756 750 755 757 753 750 754 754 752 748 748 747 742 738 734 732 731 732 733 733 730 728 727 725 723 726 731 734 737 742
773 772 771 770 769 767 765 764 766 766 762 759 757 753 759 760 754 753 754 753 753 750 748 749 746 744 740 735 730 729 727 727 728 727 725 723 721 719 720 720 725 730 734